Regional Weather Roundup
Issued by NWS

Home | Current Version | Previous Version | Graphics & Text | Print | Product List | Glossary On
Versions: 1 2 3 4 5 6 7 8 9 10 11 12 13 14 15 16 17 18 19 20 21 22 23 24 25 26 27 28 29 30 31 32 33 34 35 36 37 38 39 40 41 42 43 44 45 46 47 48 49 50
000
ASUS43 KDTX 281310
RWRMI
MICHIGAN HOURLY REGIONAL WEATHER ROUNDUP
NATIONAL WEATHER SERVICE DETROIT/PONTIAC MI
800 AM EST FRI NOV 28 2014

NOTE: "FAIR" INDICATES FEW OR NO CLOUDS BELOW 12,000 FEET WITH NO
SIGNIFICANT WEATHER AND/OR OBSTRUCTION TO VISIBILITY.

MIZ047>049-052>055-059>063-066>070-074>076-081>083-281400-
SOUTHEAST LOWER MICHIGAN

CITY           SKY/WX    TMP DP  RH WIND       PRES   REMARKS
ADRIAN         CLOUDY    17  12  80 SW3       30.36S
ALMA           CLOUDY    19  13  76 S5        30.30F
ANN ARBOR      MOCLDY    16  11  80 SW6       30.34S
BAD AXE        CLOUDY    19  10  67 NW7       30.30S
DETROIT CITY   CLOUDY    21   7  54 W3        30.35S
DETROIT        CLOUDY    19   8  62 CALM      30.36S
FLINT          MOCLDY    20  11  68 SW5       30.32F
GROSSE ILE     PTCLDY    19   7  58 CALM      30.35S
HILLSDALE      CLOUDY    20  16  85 CALM      30.30F
HOWELL         MOCLDY    17  12  79 SW3       30.31F

CITY           SKY/WX    TMP DP  RH WIND       PRES   REMARKS
JACKSON        CLOUDY    18  10  71 S3        30.31F
LAMBERTVILLE   CLOUDY    18  12  79 CALM      30.38S
LANSING        CLOUDY    19  10  68 S5        30.31F
LAPEER         NOT AVBL
MASON          CLOUDY    19  12  75 CALM      30.31F
MONROE         PTCLDY    16  10  79 CALM      30.35S
MT. CLEMENS    MOCLDY    19   9  66 W5        30.31F
PONTIAC        MOCLDY    17   8  67 W3        30.30S
PORT HOPE        N/A     21  10  62 W6        30.28S
PORT HURON     MOCLDY    19  10  68 W3        30.33S
TRI CITIES     CLOUDY    20  12  71 S3        30.32S
YPSILANTI      PTCLDY    22   9  57 SW5       30.36R
$$
MIZ043>046-050>051-056>058-064>065-071>073-077>080-281400-
SOUTHWEST LOWER MICHIGAN

CITY           SKY/WX    TMP DP  RH WIND       PRES   REMARKS
BATTLE CREEK   CLOUDY    23  16  74 S8        30.29F
BENTON HARBOR  CLOUDY    21  12  68 S7        30.30F
BIG RAPIDS     CLOUDY    18  16  90 CALM      30.24F
COLDWATER      CLOUDY    22  18  84 S5        30.31F
HOLLAND        CLOUDY    22  17  81 SE8       30.28F
GRAND RAPIDS   CLOUDY    20  13  74 SE8       30.28F
KALAMAZOO      CLOUDY    22  15  75 S9        30.29F
MARSHALL       CLOUDY    19  13  79 SE3       30.29F
MUSKEGON       CLOUDY    21  14  74 SE8       30.27F
$$
MIZ016>042-281400-
NORTHERN LOWER MICHIGAN

CITY           SKY/WX    TMP DP  RH WIND       PRES   REMARKS
ALPENA         CLOUDY    16  12  84 SW6       30.26S
BEAVER ISLAND  CLOUDY    21  14  73 W8        30.22F
BELLAIRE       FLURRIES  18  14  83 S5        30.26S
CADILLAC       CLOUDY    15  12  88 CALM      30.21S
CHARLEVOIX     CLOUDY    20  12  71 SW7       30.25F
FRANKFORT      CLOUDY    19  15  87 SE6       30.24F
GAYLORD        CLOUDY    13  10  88 SW8       30.19F
GRAYLING       CLOUDY    14  11  87 CALM      30.23F
HARBOR SPRINGS LGT SNOW  18  14  86 CALM      30.23F
HOUGHTON LAKE  CLOUDY    14  11  87 CALM      30.24F
MANISTEE       CLOUDY    19  12  73 SE5       30.26S
OSCODA         MOCLDY    13  11  91 SW6       30.28S
PELLSTON       CLOUDY    17  13  84 SE5       30.23F
TRAVERSE CITY  CLOUDY    18  12  77 S3        30.25F
$$
MIZ007>008-015-281400-
EASTERN UPPER MICHIGAN

CITY           SKY/WX    TMP DP  RH WIND       PRES   REMARKS
KINROSS        CLOUDY     3   3 100 SE5       30.22F
MACKINAC ISLAN CLOUDY    17  13  87 NE3       30.22F
NEWBERRY       CLOUDY    10   6  84 SW7       30.19F
S. S. MARIE    MOCLDY     3  -1  83 E5        30.24F
$$
MIZ004>006-011>014-085-281400-
CENTRAL UPPER MICHIGAN

CITY           SKY/WX    TMP DP  RH WIND       PRES   REMARKS
MANISTIQUE     CLOUDY     9   4  82 CALM      30.22F
ESCANABA       MOCLDY     9   3  78 W5        30.23F
MENOMINEE      CLOUDY     9   3  78 CALM      30.23F
SAWYER-GWINN   MOCLDY     7   1  78 SW7       30.15F
$$
MIZ001>003-009>011-084-281400-
WESTERN UPPER MICHIGAN

CITY           SKY/WX    TMP DP  RH WIND       PRES   REMARKS
IRON MOUNTAIN  CLOUDY     5   0  79 SE3       30.16F
HOUGHTON       CLOUDY     7   1  76 SW3       30.12F
COPPER HARBOR    N/A     13   1  59 SW9       30.15F
IRONWOOD       CLOUDY     7   0  72 S3        30.06F
$$

ABBREVIATIONS USED IN REMARKS
   TC - TEMPERATURE IN CELSIUS
  WCI - WIND CHILL INDEX
   HX - HEAT INDEX
  VSB - VISIBILITY



USA.gov is the U.S. government's official web portal to all federal, state and local government web resources and services.